Location: B?jaj?g
(11.7167°N, 92.6667°E)
Time: 04:40:56
(UTC+00:00)

Cosmos 923 Rocket - Pass Details

Date: 18 September 2020
Orbit: 759 x 784 km, 74.0° (Epoch: 20 October)

Event Time Altitude Azimuth Distance (km) Brightness Sun altitude
Rises 13:06:35 0° 343° (NNW) 3,210 7.5 -20.0°
Reaches altitude 10° 13:08:57 10° 341° (NNW) 2,283 6.8 -20.6°
Maximum altitude 13:14:06 69° 258° (WSW) 807 4.2 -21.9°
Drops below altitude 10° 13:19:14 10° 175° (S) 2,283 6.3 -23.1°
Enters shadow 13:20:39 - 173° (S) 2,829 6.8 -23.4°
